Regional Weather Roundup
Issued by NWS

Home | Current Version | Previous Version | Text Only | Print | Product List | Glossary Off
Versions: 1 2 3 4 5 6 7 8 9 10 11 12 13 14 15 16 17 18 19 20 21 22 23 24 25 26 27 28 29 30 31 32 33 34 35 36 37 38 39 40 41 42 43 44 45 46 47 48 49 50

147
ASUS43 KIND 271359
RWRIN

WEATHER ROUNDUP FOR INDIANA
NATIONAL WEATHER SERVICE INDIANAPOLIS IN
1000 AM EDT WED JUL 27 2016

NOTE: "FAIR" INDICATES FEW OR NO CLOUDS BELOW 12,000 FEET WITH NO
SIGNIFICANT WEATHER AND/OR OBSTRUCTIONS TO VISIBILITY.

* - STATION DOES NOT REPORT WEATHER SUCH AS PRECIPITATION OR FOG.

+ - STATION NOT QUALITY CONTROLLED BY THE NATIONAL WEATHER SERVICE.
    USE DATA WITH CAUTION...ESPECIALLY DEWPOINT AND RELATIVE
    HUMIDITY OBSERVATIONS.

INZ001>003-010>013-019-020-271500-
NORTHWEST INDIANA

CITY           SKY/WX    TMP DP  RH WIND       PRES   REMARKS
GARY /AIRPORT/ MOSUNNY   79  72  78 CALM      30.03S

$$

LMZ046-743>745-271500-
SOUTHERN LAKE MICHIGAN

STATION/POSITION TIME  TEMP    WIND        PRES    WAVE
                       AIR SEA DIR/SP/G            HT
                 (UTC) (F)     (DEG/KT/KT) (MB)    (FT)
BURNS HARBOR     1300   75     240/  4/  5 1017.3S
MICHIGAN CITY    1300   74     200/  5/  6   N/A
5NW MICH CITY    1300   76 75  240/  6/  6   N/A     1

$$

INZ004-005-014>016-021>024-271500-
NORTH CENTRAL INDIANA

CITY           SKY/WX    TMP DP  RH WIND       PRES   REMARKS
ELKHART        SUNNY     77  70  78 CALM      30.04
GOSHEN         SUNNY     78  64  61 CALM      30.03F
SOUTH BEND     SUNNY     78  67  68 CALM      30.03F

$$

INZ006>009-017-018-025>027-271500-
NORTHEAST INDIANA

CITY           SKY/WX    TMP DP  RH WIND       PRES   REMARKS
ANGOLA *+      SUNNY     79  66  65 CALM      30.04S
FORT WAYNE     MOSUNNY   80  66  62 VRB3      30.03F

$$

INZ028-029-035-036-043>045-051>053-271500-
WEST CENTRAL INDIANA

CITY           SKY/WX    TMP DP  RH WIND       PRES   REMARKS
CRAWFORDSVL +  SUNNY     76  68  78 CALM      30.04F
LAFAYETTE      SUNNY     79  70  74 NE5       30.02F
TERRE HAUTE    CLOUDY    79  70  74 NE6       30.02F

$$

INZ030>032-037>040-046>048-054>057-064-065-271500-
CENTRAL INDIANA

CITY           SKY/WX    TMP DP  RH WIND       PRES   REMARKS
ANDERSON       SUNNY     77  66  69 CALM      30.04S
COLUMBUS       MOSUNNY   75  73  94 CALM      30.03F
INDIANAPOLIS   MOSUNNY   81  66  60 NE5       30.03F
-EAGLE CREEK   SUNNY     81  65  58 VRB3      30.02F
KOKOMO *+      SUNNY     79  64  61 CALM      30.03F
SHELBYVILLE    MOSUNNY   79  69  71 NE3       30.02F

$$

INZ033-034-041-042-049-050-058-059-271500-
EAST CENTRAL INDIANA

CITY           SKY/WX    TMP DP  RH WIND       PRES   REMARKS
MUNCIE         SUNNY     80  67  64 N6        30.04F

$$

INZ060-061-067>069-081>083-085>088-271500-
SOUTHWEST INDIANA

CITY           SKY/WX    TMP DP  RH WIND       PRES   REMARKS
EVANSVILLE     SUNNY     82  77  84 E3        30.01R
HUNTINGBURG *+ SUNNY     81  73  78 CALM      30.02R

$$

INZ062-063-066-070>080-084-089>092-271500-
SOUTH CENTRAL AND SOUTHEAST INDIANA

CITY           SKY/WX    TMP DP  RH WIND       PRES   REMARKS
BLOOMINGTON    CLOUDY    78  68  71 E3        30.03F
MADISON *+     CLOUDY    77  73  88 CALM      30.05S

$$





USA.gov is the U.S. government's official web portal to all federal, state and local government web resources and services.